Preview of NWS' New Version of Forecast
This preview is not operational and should not be used for support decisions.

Regional Weather Roundup (RWR)

Issued by Philadelphia/Mt Holly (PHI)

                            
000
ASUS41 KPHI 181312
RWRPHI

REGIONAL WEATHER ROUNDUP
NATIONAL WEATHER SERVICE MOUNT HOLLY NJ
800 AM EST FRI JAN 18 2019

NOTE:  "FAIR" INDICATES FEW OR NO CLOUDS BELOW 12,000 FEET WITH NO
SIGNIFICANT WEATHER AND/OR OBSTRUCTIONS TO VISIBILITY.

 * = STATION DOES NOT REPORT PRECIPITATION (E.G. RAIN, SNOW, ETC.) 
        OR FOG.

NJZ015>026-181400-
SOUTHERN NEW JERSEY
  
CITY           SKY/WX    TMP DP  RH WIND       PRES   REMARKS
POMONA         MIX PCPN  33  33 100 NE6       30.09S FOG     WCI  28  
WILDWOOD*      CLOUDY    35  34  96 E6        30.09S WCI  30          
MILLVILLE      CLOUDY    32  31  96 E3        30.08S FOG              
WRIGHTSTOWN    MOCLDY    30  30 100 CALM      30.06F FOG              
MOUNT HOLLY    LGT SNOW  30  28  92 CALM      30.09F FOG              
TRENTON        CLOUDY    30  27  88 NE3       30.08F FOG              

$$
NJZ001>014-181400-
NORTHERN NEW JERSEY
  
CITY           SKY/WX    TMP DP  RH WIND       PRES   REMARKS
SUSSEX         MIX PCPN  24  22  91 CALM      30.08F                  
ANDOVER*         N/A     24  22  91 CALM      30.08F                  
MORRISTOWN     LGT SNOW  27  27 100 CALM      30.11F                  
NEWARK         LGT SNOW  29  27  92 NE7       30.11F FOG     WCI  22  
TETERBORO      LGT SNOW  29  26  89 VRB6      30.10F FOG     WCI  23  
CALDWELL       CLOUDY    27  25  92 CALM      30.11F                  
SOMERVILLE     CLOUDY    28  25  88 CALM      30.10S FOG              
ALLAIRE*       MIX PCPN  32  31  96 CALM      30.11R FOG              
TOMS RIVER*    MIX PCPN  31  31 100 N3        30.11R FOG              

$$
PAZ043-044-047-054-055-060>062-066>071-181400-
EASTERN PENNSYLVANIA
  
CITY           SKY/WX    TMP DP  RH WIND       PRES   REMARKS
PHILADELPHIA   LGT SNOW  31  29  92 NE5       30.10F FOG     WCI  26  
NORTH PHILA    CLOUDY    32  28  85 NE5       30.10F FOG     WCI  27  
BLUE BELL*     CLOUDY    28  28 100 CALM      30.10F                  
DOYLESTOWN     LGT SNOW  28  25  88 NE3       30.07F FOG              
QUAKERTOWN*    CLOUDY    27  27 100 CALM      30.08  FOG              
PERKASIE*      LGT SNOW  27  27 100 NE6       30.08F WCI  20          
POTTSTOWN      CLOUDY    26  25  96 CALM      30.09F FOG              
LANCASTER      CLOUDY    30  27  88 N5        30.07S FOG     WCI  25  
COATESVILLE    CLOUDY    28  28 100 MISG        N/A  FOG              
READING        CLOUDY    28  28 100 NW6       30.08S FOG     WCI  22  
ALLENTOWN      CLOUDY    29  24  82 NE5       30.09S WCI  24          
MOUNT POCONO   CLOUDY    22  22 100 CALM      29.99S                  
HAZLETON       LGT SNOW N/A N/A N/A CALM      30.03S                  
LEHIGHTON      LGT SNOW  28  27  93 CALM      30.09R                  
WILKES BARRE   CLOUDY    26  24  92 E3        30.03R                  

$$
DEZALL-MDZ008-012-015-019-020-181400-
DELAWARE AND EASTERN MARYLAND
  
CITY           SKY/WX    TMP DP  RH WIND       PRES   REMARKS
WILMINGTON     LGT SNOW  31  30  96 NE7       30.09F FOG     WCI  24  
DOVER          CLOUDY    33  33  99 CALM      30.08S                  
GEORGETOWN     CLOUDY    38  35  89 CALM      30.08S FOG              
EASTON         CLOUDY    34  34 100 CALM      30.12R FOG              
ABERDEEN       FOG       30  29  99 CALM      30.09S VSB 1            
PATUXENT       CLOUDY    36  35  96 CALM      30.08  FOG              
OCEAN CITY     CLOUDY    39  39 100 CALM      30.07S                  
WALLOPS ISLAND CLOUDY    42  38  85 SW6       30.08R                  
CAMBRIDGE      CLOUDY    34  34 100 CALM      30.08S                  
SALISBURY      CLOUDY    37  36  96 VRB3      30.07S                  

$$
PAZ001-021-NYZ056-072-MDZ011-DCZ001-181400-
OTHER NEARBY LOCATIONS
  
CITY           SKY/WX    TMP DP  RH WIND       PRES   REMARKS
HARRISBURG     LGT SNOW  28  24  85 CALM      30.08R FOG              
STATE COLLEGE  LGT SNOW  27  25  93 CALM      30.00R                  
WILLIAMSPORT   LGT SNOW  27  23  85 E7        30.05S FOG     WCI  19  
BINGHAMTON     LGT SNOW  23  21  92 S8        29.95S VSB 3/4 WCI  14  
NEW YORK CITY  LGT SNOW  32  30  92 MISG      30.12F FOG              
BALTIMORE      FOG       32  32 100 NE5       30.08R VSB 1/2 WCI  27  
WASHINGTON DC  CLOUDY    35  31  85 NE6       30.09R FOG     WCI  30  

$$